Location: Creola (historical)
(38.1334°N, 100.5024°W)
Time: 07:45:04
(UTC+00:00)

OAO 2 Rocket - Pass Details

Date: 18 October 2021
Orbit: 676 x 745 km, 35.0° (Epoch: 30 November)

Event Time Altitude Azimuth Distance (km) Brightness Sun altitude
Exits shadow 12:06:32 11° 252° (WSW) 2,075 5.2 -10.1°
Maximum altitude 12:11:16 59° 174° (S) 789 3.7 -9.1°
Drops below altitude 10° 12:16:06 10° 96° (E) 2,107 7.6 -8.2°
Sets 12:18:30 0° 92° (E) 3,019 9.1 -7.7°
